Enid, OK

2:22 AM CDT on July 27, 2017 (GMT -0500)
Enid Woodring Municipal

Weather History for KWDG - April, 2013

Change the Weather History Date:

Wednesday, April 3, 2013

  Actual Average Record
Temperature  
Mean Temperature 37 °F -  
Max Temperature 39 °F 64 °F 87 °F (2011)
Min Temperature 35 °F 44 °F 28 °F (2002)
Degree Days  
Heating Degree Days 28    
Moisture  
Dew Point 35 °F    
Average Humidity 91    
Maximum Humidity 100    
Minimum Humidity 81    
Precipitation  
Precipitation 0.10 in - - ()
Sea Level Pressure  
Sea Level Pressure 30.20 in    
Wind  
Wind Speed 12 mph (NNE)    
Max Wind Speed 21 mph    
Max Gust Speed 24 mph    
Visibility 7 miles    
Events Rain    
Averages and records for this station are not official NWS values.
T = Trace of Precipitation, MM = Missing Value Source: NWS Daily Summary

Daily Weather History Graph

Daily Weather History Graph

Search for Another Location

Airport or City:

Trip Planner

Search our weather history database for the weather conditions in past years. The results will help you decide how hot, cold, wet, or windy it might be!

Date:

Astronomy

Apr. 03, 2013 Rise Set
Actual Time 7:13 AM CDT 7:55 PM CDT
Civil Twilight 6:47 AM CDT 8:21 PM CDT
Nautical Twilight 6:17 AM CDT 8:52 PM CDT
Astronomical Twilight 5:45 AM CDT 9:23 PM CDT
Moon 2:45 AM CDT (4/3) 1:19 PM CDT (4/3)
Length of Visible Light 13h 33m
Length of Day
12h 41m
Last Quarter, 44% of the Moon is Illuminated
Apr 3
Last Quarter
Apr 10
New
Apr 18
First Quarter
Apr 25
Full
May 2
Last Quarter

Hourly Weather History & Observations

Time (CDT) Temp. Windchill Dew Point Humidity Pressure Visibility Wind Dir Wind Speed Gust Speed Precip Events Conditions
12:15 AM 37.4 °F 31.4 °F 33.8 °F 87% 30.18 in 10.0 mi NNE 8.1 mph - N/A   Overcast
12:35 AM 37.4 °F 30.3 °F 33.8 °F 87% 30.18 in 10.0 mi NE 10.4 mph - N/A   Overcast
12:55 AM 37.4 °F 30.3 °F 33.8 °F 87% 30.18 in 10.0 mi NE 10.4 mph - N/A   Overcast
1:15 AM 37.4 °F 30.8 °F 33.8 °F 87% 30.19 in 10.0 mi North 9.2 mph - N/A   Overcast
1:35 AM 37.4 °F 29.3 °F 33.8 °F 87% 30.18 in 10.0 mi NNE 12.7 mph - N/A Rain Light Rain
1:55 AM 37.4 °F 30.3 °F 33.8 °F 87% 30.19 in 4.0 mi North 10.4 mph 18.4 mph 0.03 in Rain Light Rain
2:15 AM 37.4 °F 29.3 °F 33.8 °F 87% 30.18 in 5.0 mi NNE 12.7 mph 18.4 mph 0.01 in Rain Rain
2:35 AM 37.4 °F 28.5 °F 33.8 °F 87% 30.18 in 7.0 mi NNE 15.0 mph 24.2 mph 0.01 in   Overcast
2:55 AM 37.4 °F 29.3 °F 33.8 °F 87% 30.18 in 10.0 mi NNE 12.7 mph - 0.01 in   Mostly Cloudy
3:15 AM 37.4 °F 28.5 °F 33.8 °F 87% 30.17 in 10.0 mi North 15.0 mph - N/A   Mostly Cloudy
3:35 AM 37.4 °F 28.9 °F 33.8 °F 87% 30.17 in 10.0 mi NNE 13.8 mph 19.6 mph N/A   Overcast
3:55 AM 37.4 °F 28.9 °F 33.8 °F 87% 30.17 in 10.0 mi NNE 13.8 mph - N/A   Overcast
4:15 AM 37.4 °F 28.5 °F 33.8 °F 87% 30.17 in 10.0 mi NNE 15.0 mph - N/A   Overcast
4:35 AM 37.4 °F 28.9 °F 33.8 °F 87% 30.17 in 10.0 mi NE 13.8 mph - N/A   Overcast
4:55 AM 37.4 °F 28.9 °F 33.8 °F 87% 30.16 in 10.0 mi NE 13.8 mph - N/A   Overcast
5:15 AM 37.4 °F 28.9 °F 33.8 °F 87% 30.16 in 10.0 mi NE 13.8 mph - N/A   Overcast
5:35 AM 37.4 °F 29.8 °F 33.8 °F 87% 30.17 in 10.0 mi NE 11.5 mph - N/A   Overcast
5:55 AM 37.4 °F 29.3 °F 33.8 °F 87% 30.17 in 10.0 mi NNE 12.7 mph - N/A   Mostly Cloudy
6:17 AM 39.2 °F 31.2 °F 33.8 °F 81% 30.17 in 10.0 mi NNE 13.8 mph - N/A   Light Drizzle
7:50 AM 37.4 °F - 33.8 °F 87% 30.21 in - North - - N/A Rain Light Rain
8:50 AM 37.4 °F 26.9 °F 35.6 °F 93% 30.20 in 2.0 mi NE 20.7 mph - N/A Rain Light Rain
9:50 AM 37.4 °F 28.5 °F 35.6 °F 93% 30.24 in 3.0 mi NE 15.0 mph - N/A Rain Light Rain
10:55 AM 37.4 °F 28.9 °F 35.6 °F 93% 30.26 in 1.8 mi ENE 13.8 mph - N/A Rain Light Rain
11:50 AM 37.4 °F 28.9 °F 35.6 °F 93% 30.26 in 4.0 mi NE 13.8 mph - N/A Rain Light Rain
12:50 PM 37.4 °F 30.3 °F 35.6 °F 93% 30.25 in 3.0 mi NNE 10.4 mph - N/A Rain Light Rain
1:50 PM 39.2 °F 31.2 °F 35.6 °F 87% 30.23 in 6.0 mi NE 13.8 mph - N/A Rain Light Rain
2:50 PM 37.4 °F 28.5 °F 35.6 °F 93% 30.24 in 5.0 mi NNE 15.0 mph - N/A Rain Light Rain
4:50 PM 37.4 °F 27.2 °F 35.6 °F 93% 30.19 in 3.0 mi NE 19.6 mph - N/A Rain Rain
6:50 PM 35.6 °F 27.5 °F 35.6 °F 100% 30.21 in 3.0 mi NNE 11.5 mph - N/A Rain Light Rain
8:50 PM 35.6 °F 27.5 °F 35.6 °F 100% 30.20 in 5.0 mi North 11.5 mph - N/A Rain Light Rain
9:15 PM 35.6 °F 29.2 °F 33.8 °F 93% 30.21 in 5.0 mi North 8.1 mph - 0.01 in Rain Light Rain
9:35 PM 35.6 °F 30.7 °F 33.8 °F 93% 30.22 in 5.0 mi North 5.8 mph - 0.01 in Rain Rain
9:55 PM 35.6 °F 29.2 °F 35.6 °F 100% 30.22 in 5.0 mi North 8.1 mph - 0.01 in Rain Light Rain
10:15 PM 35.6 °F 29.2 °F 33.8 °F 93% 30.22 in 5.0 mi NNW 8.1 mph - 0.01 in Rain Light Rain
10:35 PM 35.6 °F 29.9 °F 35.6 °F 100% 30.23 in 4.0 mi North 6.9 mph - 0.01 in Rain Light Rain
10:55 PM 35.6 °F 28.6 °F 35.6 °F 100% 30.23 in 5.0 mi North 9.2 mph - 0.02 in Rain Light Rain
11:15 PM 35.6 °F 29.2 °F 35.6 °F 100% 30.24 in 4.0 mi NNW 8.1 mph - N/A Rain Light Rain
11:35 PM 35.6 °F 29.2 °F 35.6 °F 100% 30.24 in 4.0 mi NNW 8.1 mph - 0.02 in Rain Light Rain
11:55 PM 35.6 °F 29.2 °F 35.6 °F 100% 30.24 in 4.0 mi NNW 8.1 mph - 0.03 in Rain Light Rain